Simultaneous Nadir Overpasses (SNOs) Predictions

Prediction of SNOs between METOP-A and NOAA-19 Satellite Orbit:

Table of predicted SNOs for the next 14.0 days since TLE Epoch: 7/31/2020
Index Date (METOP-A) Time (METOP-A) Lat,Lon (METOP-A) SZA (METOP-A ) Date (NOAA-19) Time (NOAA-19) Lat,Lon (NOAA-19) SZA (NOAA-19 ) Distance(km) Time Diff (sec)
1 08/07/2020 16:26:36 80.63, -53.01 64.66 08/07/2020 16:25:36 80.63, -53.18 64.64 3.11 60
2 08/07/2020 17:17:17 -80.64, 114.37 115.33 08/07/2020 17:16:38 -80.63, 114.24 115.35 2.55 39
3 08/07/2020 18:07:58 80.62, -78.50 64.66 08/07/2020 18:07:36 80.63, -78.49 64.66 0.57 22
4 08/07/2020 18:58:39 -80.63, 88.88 115.33 08/07/2020 18:58:38 -80.62, 88.93 115.33 1.06 1
5 08/07/2020 19:49:19 80.64,-103.66 64.70 08/07/2020 19:49:36 80.62,-103.79 64.68 3.04 17
6 08/07/2020 20:40:01 -80.61, 63.39 115.33 08/07/2020 20:40:39 -80.63, 63.26 115.31 2.67 38
7 08/07/2020 21:30:41 80.62,-129.14 64.70 08/07/2020 21:31:36 80.61,-129.10 64.70 1.64 55
